Weather History for Cape Girardeau, MO

Change the Weather History Date:

Thursday, March 14, 2013

  Actual Average Record
Temperature  
Mean Temperature 36 °F 46 °F  
Max Temperature 50 °F 58 °F 79 °F (2012)
Min Temperature 22 °F 36 °F 15 °F (1993)
Degree Days  
Heating Degree Days 29 19  
Month to date heating degree days 350 290  
Since 1 July heating degree days 3589 3787  
Cooling Degree Days 0 0  
Month to date cooling degree days 0 0  
Year to date cooling degree days 0 0  
Moisture  
Dew Point 27 °F    
Average Humidity 67    
Maximum Humidity 88    
Minimum Humidity 46    
Precipitation  
Precipitation T in 0.14 in 1.97 in (1982)
Month to date precipitation 0.36 1.81  
Year to date precipitation 6.98 8.69  
Sea Level Pressure  
Sea Level Pressure 30.31 in    
Wind  
Wind Speed 5 mph (SSE)    
Max Wind Speed 16 mph    
Max Gust Speed 20 mph    
Visibility 10 miles    
Events      
T = Trace of Precipitation, MM = Missing Value Source: NWS Daily Summary

Daily Weather History Graph

Daily Weather History Graph

Search for Another Location

Airport:

Trip Planner

Search our weather history database for the weather conditions in past years. The results will help you decide how hot, cold, wet, or windy it might be!

Date:

Astronomy

Mar. 14, 2013 Rise Set
Actual Time 7:10 AM CDT 7:04 PM CDT
Civil Twilight 6:44 AM CDT 7:30 PM CDT
Nautical Twilight 6:14 AM CDT 8:01 PM CDT
Astronomical Twilight 5:43 AM CDT 8:31 PM CDT
Moon 8:28 AM CDT (3/14) 10:15 PM CDT (3/14)
Length of Visible Light 12h 46m
Length of Day
11h 54m
Waxing Crescent, 9% of the Moon is Illuminated
Mar 14
Waxing Crescent
Mar 19
First Quarter
Mar 27
Full
Apr 2
Last Quarter
Apr 10
New

Hourly Weather History & Observations

Time (CDT) Temp. Windchill Dew Point Humidity Pressure Visibility Wind Dir Wind Speed Gust Speed Precip Events Conditions
12:53 AM 27.0 °F - 23.0 °F 85% 30.43 in 10.0 mi Calm Calm - N/A   Clear
1:53 AM 28.0 °F - 23.0 °F 81% 30.43 in 10.0 mi Calm Calm - N/A   Clear
2:53 AM 27.0 °F - 23.0 °F 85% 30.42 in 10.0 mi Calm Calm - N/A   Clear
3:53 AM 24.1 °F - 21.9 °F 91% 30.43 in 10.0 mi Calm Calm - N/A   Clear
4:53 AM 25.0 °F 19.3 °F 21.9 °F 88% 30.40 in 10.0 mi East 4.6 mph - N/A   Clear
5:53 AM 24.1 °F - 21.0 °F 88% 30.41 in 10.0 mi Calm Calm - N/A   Clear
6:53 AM 26.1 °F - 23.0 °F 88% 30.41 in 10.0 mi Calm Calm - N/A   Overcast
7:53 AM 28.9 °F - 24.1 °F 82% 30.40 in 10.0 mi Calm Calm - N/A   Overcast
8:53 AM 34.0 °F - 27.0 °F 75% 30.42 in 10.0 mi Calm Calm - N/A   Overcast
9:53 AM 37.9 °F 33.5 °F 24.1 °F 57% 30.41 in 10.0 mi South 5.8 mph - N/A   Overcast
10:53 AM 41.0 °F 34.7 °F 24.1 °F 51% 30.39 in 10.0 mi South 10.4 mph - N/A   Overcast
11:53 AM 42.1 °F 37.1 °F 26.1 °F 53% 30.37 in 10.0 mi South 8.1 mph - N/A   Overcast
12:53 PM 43.0 °F 37.2 °F 26.1 °F 51% 30.35 in 10.0 mi South 10.4 mph - N/A   Overcast
1:53 PM 44.1 °F 39.0 °F 28.9 °F 55% 30.31 in 10.0 mi South 9.2 mph - N/A   Overcast
2:53 PM 45.0 °F 39.3 °F 28.9 °F 53% 30.27 in 10.0 mi South 11.5 mph - 0.00 in   Overcast
3:53 PM 48.0 °F - 28.9 °F 48% 30.23 in 10.0 mi South 12.7 mph - N/A   Mostly Cloudy
4:53 PM 48.9 °F - 30.9 °F 50% 30.21 in 10.0 mi South 6.9 mph - N/A   Overcast
5:53 PM 48.0 °F - 32.0 °F 54% 30.20 in 10.0 mi SSE 6.9 mph - N/A   Mostly Cloudy
6:53 PM 46.0 °F 42.5 °F 32.0 °F 58% 30.18 in 10.0 mi SE 6.9 mph - N/A   Partly Cloudy
7:53 PM 44.1 °F 40.1 °F 32.0 °F 63% 30.16 in 10.0 mi SSE 6.9 mph - N/A   Clear
8:53 PM 44.1 °F 40.8 °F 30.0 °F 58% 30.15 in 10.0 mi South 5.8 mph - N/A   Clear
9:53 PM 43.0 °F 38.2 °F 30.0 °F 60% 30.14 in 10.0 mi SSE 8.1 mph - N/A   Clear
10:53 PM 42.1 °F 37.7 °F 30.0 °F 62% 30.13 in 10.0 mi SSE 6.9 mph - N/A   Clear
11:53 PM 39.9 °F - 28.9 °F 65% 30.12 in 10.0 mi Calm Calm - N/A   Clear